WetterOnline ( https://www.wetteronline.de )

Wetter aktuell Großpösna

Aktuelles Wetter: Leipzig-Holzhausen (138m)

6-stündlich | Neueste Meldungen
Ortszeit Temperatur Wetter
Mi, 19.06. 14:00 30.5° C leicht bewölkt
Mi, 19.06. 8:00 21.3° C wolkig
Mi, 19.06. 2:00 17.6° C wolkig
Di, 18.06. 20:00 26.3° C leicht bewölkt
Di, 18.06. 14:00 27.9° C wolkenlos
Di, 18.06. 8:00 19.7° C wolkenlos
Di, 18.06. 2:00 16.3° C wolkenlos
Mo, 17.06. 20:00 25.3° C wolkenlos
Ortszeit Temperatur Wetter
Mi, 19.06. 17:00 25.4° C wolkig
Mi, 19.06. 16:50 25.4° C wolkig
Mi, 19.06. 16:40 -° C wolkig
Mi, 19.06. 16:30 -° C wolkig
Mi, 19.06. 16:10 28.1° C Regen
Mi, 19.06. 16:00 29.9° C wolkig
Mi, 19.06. 15:50 29.9° C wolkig
Mi, 19.06. 15:30 30.0° C wolkig
Mi, 19.06. 15:00 30.7° C wolkig
Mi, 19.06. 14:30 30.6° C wolkig
Mi, 19.06. 14:00 30.5° C leicht bewölkt
Ortszeit Relative Feuchte Sichtweite
Mi, 19.06. 14:00 37% 30 km
Mi, 19.06. 8:00 72% 30 km
Mi, 19.06. 2:00 83% 35 km
Di, 18.06. 20:00 45% 70 km
Di, 18.06. 14:00 39% 40 km
Di, 18.06. 8:00 70% 30 km
Di, 18.06. 2:00 82% 35 km
Mo, 17.06. 20:00 44% 50 km
Ortszeit Relative Feuchte Sichtweite
Mi, 19.06. 17:00 73% 29 km
Mi, 19.06. 16:50 73% -
Mi, 19.06. 16:40 - -
Mi, 19.06. 16:30 - -
Mi, 19.06. 16:10 45% -
Mi, 19.06. 16:00 37% 45 km
Mi, 19.06. 15:50 37% -
Mi, 19.06. 15:30 38% 35 km
Mi, 19.06. 15:00 38% 40 km
Mi, 19.06. 14:30 36% 30 km
Mi, 19.06. 14:00 37% 30 km
Ortszeit Niederschlagsmenge Niederschlagsart
Mi, 19.06. 14:00 0.0 l/m2 in 6 Std. -
Mi, 19.06. 8:00 0.0 l/m2 in 12 Std. -
Mi, 19.06. 2:00 0.0 l/m2 in 6 Std. -
Di, 18.06. 20:00 0.0 l/m2 in 12 Std. -
Di, 18.06. 14:00 0.0 l/m2 in 6 Std. -
Di, 18.06. 8:00 0.0 l/m2 in 12 Std. -
Di, 18.06. 2:00 0.0 l/m2 in 6 Std. -
Mo, 17.06. 20:00 0.0 l/m2 in 3 Std. -
Ortszeit Niederschlagsmenge Niederschlagsart
Mi, 19.06. 17:00 2.2 l/m2 in 1 Std. Regenschauer
Mi, 19.06. 16:50 keine Meldung -
Mi, 19.06. 16:40 keine Meldung -
Mi, 19.06. 16:30 keine Meldung -
Mi, 19.06. 16:10 keine Meldung -
Mi, 19.06. 16:00 0.0 l/m2 in 1 Std. -
Mi, 19.06. 15:50 keine Meldung -
Mi, 19.06. 15:30 0.0 l/m2 in 1 Std. -
Mi, 19.06. 15:00 0.0 l/m2 in 1 Std. -
Mi, 19.06. 14:30 0.0 l/m2 in 1 Std. -
Mi, 19.06. 14:00 0.0 l/m2 in 1 Std. -
Ortszeit Stärke Spitze Richtung
km/h Bft. km/h Grad Sektor
Mi, 19.06. 14:00 11 2 25 160° S
Mi, 19.06. 8:00 4 1 7 140° SO
Mi, 19.06. 2:00 4 1 11 150° SO
Di, 18.06. 20:00 6 1 24 90° O
Di, 18.06. 14:00 7 2 22 120° SO
Di, 18.06. 8:00 7 2 14 110° O
Di, 18.06. 2:00 4 1 11 100° O
Mo, 17.06. 20:00 6 1 20 110° O
Ortszeit Stärke Spitze Richtung
km/h Bft. km/h Grad Sektor
Mi, 19.06. 17:00 2 1 30 80° O
Mi, 19.06. 16:50 2 1 - 80° O
Mi, 19.06. 16:40 4 1 - 220° SW
Mi, 19.06. 16:30 7 2 - 40° NO
Mi, 19.06. 16:10 7 2 - 190° S
Mi, 19.06. 16:00 13 3 22 160° S
Mi, 19.06. 15:50 13 3 - 160° S
Mi, 19.06. 15:30 11 2 20 160° S
Mi, 19.06. 15:00 7 2 22 160° S
Mi, 19.06. 14:30 9 2 22 170° S
Mi, 19.06. 14:00 11 2 25 160° S
Ortszeit Untergrenze Bedeckung Gattung
total tief tief mittel hoch
Mi, 19.06. 14:00 7200 m 6/8 0/8 - - -
Mi, 19.06. 8:00 2100 m 7/8 4/8 - - -
Mi, 19.06. 2:00 8100 m 8/8 0/8 - - -
Di, 18.06. 20:00 10500 m 3/8 0/8 - - -
Di, 18.06. 14:00 - 0/8 0/8 - - -
Di, 18.06. 8:00 - 0/8 0/8 - - -
Di, 18.06. 2:00 - 0/8 0/8 - - -
Mo, 17.06. 20:00 - 0/8 0/8 - - -
Ortszeit Bedeckungsgrad in Achtel und Wolkenuntergrenze
Mi, 19.06. 17:00 1(1110m) 7(4200m) 8(6000m)
Mi, 19.06. 16:50 1(1110m) 7(4200m) 8(6000m)
Mi, 19.06. 16:40 1(1140m) 4(3000m) 8(4200m)
Mi, 19.06. 16:30 2(1080m) 7(3000m) 8(3600m)
Mi, 19.06. 16:10 2(2400m) 8(6300m) 8(7800m)
Mi, 19.06. 16:00 1(2700m) 8(6300m) 8(8100m)
Mi, 19.06. 15:50 1(2700m) 8(6300m) 8(8100m)
Mi, 19.06. 15:30 1(2100m) 7(7800m) 7(8100m)
Mi, 19.06. 15:00 2(2100m) 7(7800m) 7(8400m)
Mi, 19.06. 14:30 1(2100m) 7(7500m) 7(8400m)
Mi, 19.06. 14:00 4(7200m) 6(9000m) 7(9000m)
Ortszeit Luftdruck NN (hPa) Tendenz (hPa in 3 Std.)
Mi, 19.06. 14:00 1009 - 0,8
Mi, 19.06. 8:00 1011 - 0,4
Mi, 19.06. 2:00 1013 - 0,7
Di, 18.06. 20:00 1013 - 1,0
Di, 18.06. 14:00 1016 - 1,4
Di, 18.06. 8:00 1018 0,0
Di, 18.06. 2:00 1019 0,0
Mo, 17.06. 20:00 1019 - 1,2
Ortszeit Luftdruck NN (hPa) Tendenz (hPa in 3 Std.)
Mi, 19.06. 17:00 1008 - 1,1
Mi, 19.06. 16:50 1008 keine Meldung
Mi, 19.06. 16:40 1008 keine Meldung
Mi, 19.06. 16:30 1008 keine Meldung
Mi, 19.06. 16:10 1008 keine Meldung
Mi, 19.06. 16:00 1008 - 1,1
Mi, 19.06. 15:50 1008 keine Meldung
Mi, 19.06. 15:30 1008 - 0,9
Mi, 19.06. 15:00 1008 - 0,9
Mi, 19.06. 14:30 1008 - 0,9
Mi, 19.06. 14:00 1009 - 0,8
Ortszeit Schneehöhe (cm)
Mi, 19.06. 14:00 -
Mi, 19.06. 8:00 -
Mi, 19.06. 2:00 -
Di, 18.06. 20:00 -
Di, 18.06. 14:00 -
Di, 18.06. 8:00 -
Di, 18.06. 2:00 -
Mo, 17.06. 20:00 -
Ortszeit Schneehöhe (cm)
Mi, 19.06. 17:00 -
Mi, 19.06. 16:50 -
Mi, 19.06. 16:40 -
Mi, 19.06. 16:30 -
Mi, 19.06. 16:10 -
Mi, 19.06. 16:00 -
Mi, 19.06. 15:50 -
Mi, 19.06. 15:30 -
Mi, 19.06. 15:00 -
Mi, 19.06. 14:30 -
Mi, 19.06. 14:00 -
Link zu dieser Seite / Seite empfehlen

Das Wetter in ...